Regional Weather Roundup
Issued by NWS

Home | Current Version | Previous Version | Graphics & Text | Print | Product List | Glossary Off
Versions: 1 2 3 4 5 6 7 8 9 10 11 12 13 14 15 16 17 18 19 20 21 22 23 24 25 26 27 28 29 30 31 32 33 34 35 36 37 38 39 40 41 42 43 44 45 46 47 48 49 50

000
ASUS43 KTOP 281108
RWRKS

WEATHER ROUNDUP FOR KANSAS
NATIONAL WEATHER SERVICE GOODLAND KS
500 AM CST SAT FEB 28 2015

NOTE:  "FAIR" INDICATES FEW OR NO CLOUDS BELOW 12,000 FEET WITH NO
SIGNIFICANT WEATHER AND/OR OBSTRUCTIONS TO VISIBILITY.

KSZ001>006-013>018-027>032-041>047-281200-
NORTHWEST KANSAS

CITY           SKY/WX    TMP DP  RH WIND       PRES   REMARKS
GOODLAND       LGT SNOW  10   7  87 S15       30.08F FOG     WCI  -7
HAYS           CLOUDY    14   3  62 SE8       30.31R
HILL CITY      CLOUDY    13   7  77 S13       30.29S WCI  -2
RUSSELL        LGT SNOW  14  11  87 SE9       30.32F FOG
$$

KSZ061>065-074>080-084>089-281200-
SOUTHWEST KANSAS

CITY           SKY/WX    TMP DP  RH WIND       PRES   REMARKS
DODGE CITY     LGT SNOW  11   6  81 SE13      30.25S WCI  -4
ELKHART          N/A     12   5  73 S15         N/A  WCI  -4
GARDEN CITY    LGT SNOW  10   7  87 SE12      30.19S FOG     WCI  -5
GREAT BEND     CLOUDY    14   7  73 S13       30.33F WCI   0
LIBERAL        CLOUDY    14   9  79 SE14      30.19S WCI  -1
PRATT          LGT SNOW  14  10  85 S9        30.34F
$$

KSZ066>073-081>083-090>101-281200-
SOUTHEAST KANSAS

CITY           SKY/WX    TMP DP  RH WIND       PRES   REMARKS
CHANUTE        CLOUDY    19  11  70 E5        30.48R
COFFEYVILLE    CLOUDY    20  14  77 SE7       30.49R
HUTCHINSON     LGT SNOW  16  11  80 SE10      30.39F VSB 1   WCI   4
MEDICINE LODGE   N/A     14  11  87 SE7       30.36F
NEWTON         CLOUDY    16   7  67 SE8       30.42S
PARSONS        CLOUDY    21  14  74 SE7       30.49R
WICHITA INTL   CLOUDY    16  11  80 SE7       30.41F
WICHITA JABRA  CLOUDY    15  11  83 SE6       30.42R
WICHITA MCCONL PTCLDY    16  12  86 SE6       30.41F
WINFIELD       CLOUDY    18  13  80 SE10      30.44F WCI   6
$$

KSZ007>012-019>026-033>040-048>060-102>105-281200-
NORTHEAST KANSAS

CITY           SKY/WX    TMP DP  RH WIND       PRES   REMARKS
CONCORDIA      PTCLDY     9   6  88 S8        30.40F
EMPORIA        CLOUDY    17   8  67 E7        30.46R
LAWRENCE       MOCLDY    15   6  67 E5        30.51S
MANHATTAN      CLOUDY    13  10  88 E3        30.47S
MARYSVILLE     CLEAR     10   3  72 SE6       30.44S
OLATHE IND     CLOUDY    16   8  71 E8        30.50R
OLATHE EXE     CLOUDY    17   8  67 E7        30.49R
SALINA         CLOUDY    16  10  77 SE9       30.43S
TOPEKA BILLARD MOCLDY    13   5  70 CALM      30.51R
TOPEKA FORBES  CLOUDY    14   8  77 CALM      30.48R
$$



USA.gov is the U.S. government's official web portal to all federal, state and local government web resources and services.